Time,TemperatureF,DewpointF,PressureIn,WindDirection,WindDirectionDegrees,WindSpeedMPH,WindSpeedGustMPH,Humidity,HourlyPrecipIn,Conditions,Clouds,dailyrainin,SoftwareType,DateUTC
2013-11-26 00:03:00,29.7,12.8,30.03,NW,316,15.2,15.2,49,0.00,CLR,FEW,0.00,WeatherDisplay:10.37,2013-11-26 06:03:00,
2013-11-26 00:08:00,29.7,12.8,30.06,West,275,12.7,12.7,49,0.00,CLR,FEW,0.00,WeatherDisplay:10.37,2013-11-26 06:08:00,
2013-11-26 00:13:00,29.7,13.3,30.06,NW,312,13.1,13.1,50,0.00,CLR,FEW,0.00,WeatherDisplay:10.37,2013-11-26 06:13:00,
2013-11-26 00:18:00,29.5,12.6,30.06,WNW,294,16.1,16.1,49,0.00,CLR,FEW,0.00,WeatherDisplay:10.37,2013-11-26 06:18:00,
2013-11-26 00:23:00,29.5,12.6,30.06,NW,310,11.5,11.5,49,0.00,CLR,FEW,0.00,WeatherDisplay:10.37,2013-11-26 06:23:00,
2013-11-26 00:28:00,29.5,13.1,30.06,WSW,251,11.5,11.5,50,0.00,CLR,FEW,0.00,WeatherDisplay:10.37,2013-11-26 06:28:00,
2013-11-26 00:33:00,29.3,12.9,30.06,NNW,327,17.3,17.3,50,0.00,CLR,FEW,0.00,WeatherDisplay:10.37,2013-11-26 06:33:00,
2013-11-26 00:38:00,29.3,12.9,30.06,NW,322,12.7,12.7,50,0.00,CLR,FEW,0.00,WeatherDisplay:10.37,2013-11-26 06:38:00,
2013-11-26 00:43:00,29.1,12.8,30.06,NW,322,16.1,16.1,50,0.00,CLR,FEW,0.00,WeatherDisplay:10.37,2013-11-26 06:43:00,
2013-11-26 00:48:00,29.1,12.8,30.06,NW,311,9.3,9.3,50,0.00,CLR,FEW,0.00,WeatherDisplay:10.37,2013-11-26 06:48:00,
2013-11-26 00:53:00,29.1,12.8,30.06,NNW,336,13.8,13.8,50,0.00,CLR,FEW,0.00,WeatherDisplay:10.37,2013-11-26 06:53:00,
2013-11-26 00:58:00,29.1,12.3,30.06,West,271,12.7,12.7,49,0.00,CLR,FEW,0.00,WeatherDisplay:10.37,2013-11-26 06:58:00,
2013-11-26 01:03:00,28.9,12.1,30.06,North,357,15.0,15.0,49,0.00,CLR,FEW,0.00,WeatherDisplay:10.37,2013-11-26 07:03:00,
2013-11-26 01:08:00,28.8,12.0,30.06,NW,322,9.2,9.2,49,0.00,CLR,FEW,0.00,WeatherDisplay:10.37,2013-11-26 07:08:00,
2013-11-26 01:13:00,28.8,12.0,30.06,North,349,9.5,9.5,49,0.00,CLR,FEW,0.00,WeatherDisplay:10.37,2013-11-26 07:13:00,
2013-11-26 01:18:00,28.8,12.0,30.06,NW,313,11.5,11.5,49,0.00,CLR,FEW,0.00,WeatherDisplay:10.37,2013-11-26 07:18:00,
2013-11-26 01:23:00,28.6,11.8,30.06,NE,41,9.2,9.2,49,0.00,CLR,FEW,0.00,WeatherDisplay:10.37,2013-11-26 07:23:00,
2013-11-26 01:28:00,28.6,11.8,30.06,NW,310,7.2,7.2,49,0.00,CLR,FEW,0.00,WeatherDisplay:10.37,2013-11-26 07:28:00,
2013-11-26 01:33:00,28.6,11.8,30.06,NW,309,15.2,15.2,49,0.00,CLR,FEW,0.00,WeatherDisplay:10.37,2013-11-26 07:33:00,
2013-11-26 01:38:00,28.6,11.3,30.06,NW,324,6.2,6.2,48,0.00,CLR,FEW,0.00,WeatherDisplay:10.37,2013-11-26 07:38:00,
2013-11-26 01:43:00,28.4,11.6,30.06,NNW,342,12.7,12.7,49,0.00,CLR,FEW,0.00,WeatherDisplay:10.37,2013-11-26 07:43:00,
2013-11-26 01:48:00,28.4,11.6,30.06,North,357,9.2,9.2,49,0.00,CLR,FEW,0.00,WeatherDisplay:10.37,2013-11-26 07:48:00,
2013-11-26 01:53:00,28.4,11.6,30.06,NW,312,8.7,8.7,49,0.00,CLR,FEW,0.00,WeatherDisplay:10.37,2013-11-26 07:53:00,
2013-11-26 01:58:00,28.2,11.5,30.06,North,350,9.2,9.2,49,0.00,CLR,FEW,0.00,WeatherDisplay:10.37,2013-11-26 07:58:00,
2013-11-26 02:03:00,28.2,11.5,30.06,NNW,329,9.2,9.2,49,0.00,CLR,FEW,0.00,WeatherDisplay:10.37,2013-11-26 08:03:00,
2013-11-26 02:08:00,28.2,11.9,30.06,NNW,335,5.8,5.8,50,0.00,CLR,FEW,0.00,WeatherDisplay:10.37,2013-11-26 08:08:00,
2013-11-26 02:13:00,28.0,11.8,30.06,WNW,300,6.9,6.9,50,0.00,CLR,FEW,0.00,WeatherDisplay:10.37,2013-11-26 08:13:00,
2013-11-26 02:18:00,28.0,12.2,30.06,WNW,292,9.2,9.2,51,0.00,CLR,FEW,0.00,WeatherDisplay:10.37,2013-11-26 08:18:00,
2013-11-26 02:23:00,28.0,12.2,30.06,West,278,7.7,7.7,51,0.00,CLR,FEW,0.00,WeatherDisplay:10.37,2013-11-26 08:23:00,
2013-11-26 02:28:00,28.0,12.2,30.06,NW,304,9.2,9.2,51,0.00,CLR,FEW,0.00,WeatherDisplay:10.37,2013-11-26 08:28:00,
2013-11-26 02:33:00,27.9,12.5,30.06,WNW,293,10.4,10.4,52,0.00,CLR,FEW,0.00,WeatherDisplay:10.37,2013-11-26 08:33:00,
2013-11-26 02:38:00,27.9,12.5,30.06,NNW,332,10.4,10.4,52,0.00,CLR,FEW,0.00,WeatherDisplay:10.37,2013-11-26 08:38:00,
2013-11-26 02:43:00,27.9,12.5,30.06,NW,317,8.2,8.2,52,0.00,CLR,FEW,0.00,WeatherDisplay:10.37,2013-11-26 08:43:00,
2013-11-26 02:48:00,27.9,12.9,30.06,WNW,287,10.4,10.4,53,0.00,CLR,FEW,0.00,WeatherDisplay:10.37,2013-11-26 08:48:00,
2013-11-26 02:53:00,27.9,12.5,30.06,NW,308,12.7,12.7,52,0.00,CLR,FEW,0.00,WeatherDisplay:10.37,2013-11-26 08:53:00,
2013-11-26 02:58:00,27.9,11.6,30.06,WNW,284,11.5,11.5,50,0.00,CLR,FEW,0.00,WeatherDisplay:10.37,2013-11-26 08:58:00,
2013-11-26 03:03:00,27.7,10.5,30.06,NW,304,15.0,15.0,48,0.00,CLR,FEW,0.00,WeatherDisplay:10.37,2013-11-26 09:03:00,
2013-11-26 03:08:00,27.7,9.6,30.06,WNW,299,15.0,15.0,46,0.00,CLR,FEW,0.00,WeatherDisplay:10.37,2013-11-26 09:08:00,
2013-11-26 03:13:00,27.7,9.6,30.06,West,268,12.7,12.7,46,0.00,CLR,FEW,0.00,WeatherDisplay:10.37,2013-11-26 09:13:00,
2013-11-26 03:18:00,27.7,9.6,30.06,WNW,290,17.7,17.7,46,0.00,CLR,FEW,0.00,WeatherDisplay:10.37,2013-11-26 09:18:00,
2013-11-26 03:24:00,27.3,9.2,30.06,NW,311,19.6,19.6,46,0.00,CLR,FEW,0.00,WeatherDisplay:10.37,2013-11-26 09:24:00,
2013-11-26 03:29:00,27.1,9.5,30.06,WNW,297,19.6,19.6,47,0.00,CLR,FEW,0.00,WeatherDisplay:10.37,2013-11-26 09:29:00,
2013-11-26 03:34:00,27.0,8.9,30.06,NW,320,20.0,20.0,46,0.00,CLR,FEW,0.00,WeatherDisplay:10.37,2013-11-26 09:34:00,
2013-11-26 03:39:00,26.6,8.1,30.06,NW,320,18.8,18.8,45,0.00,CLR,FEW,0.00,WeatherDisplay:10.37,2013-11-26 09:39:00,
2013-11-26 03:44:00,26.4,7.4,30.06,NW,319,16.1,16.1,44,0.00,CLR,FEW,0.00,WeatherDisplay:10.37,2013-11-26 09:44:00,
2013-11-26 03:49:00,26.2,6.7,30.06,WSW,254,19.6,19.6,43,0.00,CLR,FEW,0.00,WeatherDisplay:10.37,2013-11-26 09:49:00,
2013-11-26 03:54:00,26.1,6.6,30.06,NW,311,12.7,12.7,43,0.00,CLR,FEW,0.00,WeatherDisplay:10.37,2013-11-26 09:54:00,
2013-11-26 03:59:00,26.1,6.6,30.06,NW,311,19.6,19.6,43,0.00,CLR,FEW,0.00,WeatherDisplay:10.37,2013-11-26 09:59:00,
2013-11-26 04:04:00,25.9,6.4,30.06,WNW,292,12.7,12.7,43,0.00,CLR,FEW,0.00,WeatherDisplay:10.37,2013-11-26 10:04:00,
2013-11-26 04:09:00,25.5,5.6,30.06,WNW,302,12.7,12.7,42,0.00,CLR,FEW,0.00,WeatherDisplay:10.37,2013-11-26 10:09:00,
2013-11-26 04:14:00,25.3,5.4,30.06,NW,310,15.0,15.0,42,0.00,CLR,FEW,0.00,WeatherDisplay:10.37,2013-11-26 10:14:00,
2013-11-26 04:19:00,25.2,5.2,30.06,NW,311,15.0,15.0,42,0.00,CLR,FEW,0.00,WeatherDisplay:10.37,2013-11-26 10:19:00,
2013-11-26 04:24:00,25.2,5.2,30.06,NW,313,19.6,19.6,42,0.00,CLR,FEW,0.00,WeatherDisplay:10.37,2013-11-26 10:24:00,
2013-11-26 04:29:00,24.8,4.9,30.06,NW,313,17.7,17.7,42,0.00,CLR,FEW,0.00,WeatherDisplay:10.37,2013-11-26 10:29:00,
2013-11-26 04:34:00,24.6,4.8,30.06,NW,322,17.3,17.3,42,0.00,CLR,FEW,0.00,WeatherDisplay:10.37,2013-11-26 10:34:00,
2013-11-26 04:39:00,24.4,4.6,30.06,NW,312,13.8,13.8,42,0.00,CLR,FEW,0.00,WeatherDisplay:10.37,2013-11-26 10:39:00,
2013-11-26 04:44:00,24.3,4.4,30.06,West,266,12.7,12.7,42,0.00,CLR,FEW,0.00,WeatherDisplay:10.37,2013-11-26 10:44:00,
2013-11-26 04:49:00,24.3,4.4,30.06,West,279,19.6,19.6,42,0.00,CLR,FEW,0.00,WeatherDisplay:10.37,2013-11-26 10:49:00,
2013-11-26 04:54:00,23.9,4.6,30.09,WNW,289,15.0,15.0,43,0.00,CLR,FEW,0.00,WeatherDisplay:10.37,2013-11-26 10:54:00,
2013-11-26 04:59:00,23.5,4.3,30.09,NW,308,15.2,15.2,43,0.00,CLR,FEW,0.00,WeatherDisplay:10.37,2013-11-26 10:59:00,
2013-11-26 05:04:00,23.4,4.1,30.09,NW,319,17.7,17.7,43,0.00,CLR,FEW,0.00,WeatherDisplay:10.37,2013-11-26 11:04:00,
2013-11-26 05:09:00,23.2,4.0,30.09,NW,318,15.2,15.2,43,0.00,CLR,FEW,0.00,WeatherDisplay:10.37,2013-11-26 11:09:00,
2013-11-26 05:14:00,23.0,4.3,30.09,WNW,288,15.0,15.0,44,0.00,CLR,FEW,0.00,WeatherDisplay:10.37,2013-11-26 11:14:00,
2013-11-26 05:19:00,22.8,4.1,30.09,WNW,302,12.7,12.7,44,0.00,CLR,FEW,0.00,WeatherDisplay:10.37,2013-11-26 11:19:00,
2013-11-26 05:24:00,22.6,4.0,30.09,WNW,300,15.0,15.0,44,0.00,CLR,FEW,0.00,WeatherDisplay:10.37,2013-11-26 11:24:00,
2013-11-26 05:29:00,22.5,3.8,30.09,NW,321,12.7,12.7,44,0.00,CLR,FEW,0.00,WeatherDisplay:10.37,2013-11-26 11:29:00,
2013-11-26 05:34:00,22.3,3.6,30.09,West,276,19.6,19.6,44,0.00,CLR,FEW,0.00,WeatherDisplay:10.37,2013-11-26 11:34:00,
2013-11-26 05:39:00,22.1,3.0,30.09,North,5,17.2,17.2,43,0.00,CLR,FEW,0.00,WeatherDisplay:10.37,2013-11-26 11:39:00,
2013-11-26 05:44:00,21.9,2.8,30.09,NW,316,11.6,11.6,43,0.00,CLR,FEW,0.00,WeatherDisplay:10.37,2013-11-26 11:44:00,
2013-11-26 05:49:00,21.6,2.5,30.12,NW,304,14.1,14.1,43,0.00,CLR,FEW,0.00,WeatherDisplay:10.37,2013-11-26 11:49:00,
2013-11-26 05:54:00,21.2,2.2,30.12,NW,309,20.0,20.0,43,0.00,CLR,FEW,0.00,WeatherDisplay:10.37,2013-11-26 11:54:00,
2013-11-26 05:59:00,21.0,1.5,30.12,NNW,333,25.3,25.3,42,0.00,CLR,FEW,0.00,WeatherDisplay:10.37,2013-11-26 11:59:00,
2013-11-26 06:04:00,20.7,0.6,30.12,NW,312,17.7,17.7,41,0.00,CLR,FEW,0.00,WeatherDisplay:10.37,2013-11-26 12:04:00,
2013-11-26 06:09:00,20.5,-0.1,30.12,NNW,346,20.0,20.0,40,0.00,CLR,FEW,0.00,WeatherDisplay:10.37,2013-11-26 12:09:00,
2013-11-26 06:14:00,20.3,-0.2,30.12,WSW,247,15.0,15.0,40,0.00,CLR,FEW,0.00,WeatherDisplay:10.37,2013-11-26 12:14:00,
2013-11-26 06:19:00,19.9,-1.1,30.12,NNW,334,15.0,15.0,39,0.00,CLR,FEW,0.00,WeatherDisplay:10.37,2013-11-26 12:19:00,
2013-11-26 06:24:00,19.6,-1.4,30.12,WNW,295,22.1,22.1,39,0.00,CLR,FEW,0.00,WeatherDisplay:10.37,2013-11-26 12:24:00,
2013-11-26 06:29:00,19.2,-1.7,30.12,NNW,334,18.4,18.4,39,0.00,CLR,FEW,0.00,WeatherDisplay:10.37,2013-11-26 12:29:00,
2013-11-26 06:34:00,18.7,-2.2,30.15,NNW,341,23.0,23.0,39,0.00,CLR,FEW,0.00,WeatherDisplay:10.37,2013-11-26 12:34:00,
2013-11-26 06:39:00,18.3,-2.5,30.15,NW,316,19.6,19.6,39,0.00,CLR,FEW,0.00,WeatherDisplay:10.37,2013-11-26 12:39:00,
2013-11-26 06:44:00,18.0,-2.9,30.15,NNW,344,17.3,17.3,39,0.00,CLR,FEW,0.00,WeatherDisplay:10.37,2013-11-26 12:44:00,
2013-11-26 06:49:00,17.8,-3.0,30.15,NW,323,17.3,17.3,39,0.00,CLR,FEW,0.00,WeatherDisplay:10.37,2013-11-26 12:49:00,
2013-11-26 06:54:00,17.6,-2.7,30.15,West,271,15.0,15.0,40,0.00,CLR,FEW,0.00,WeatherDisplay:10.37,2013-11-26 12:54:00,
2013-11-26 06:59:00,17.4,-2.8,30.15,NNW,334,12.7,12.7,40,0.00,CLR,FEW,0.00,WeatherDisplay:10.37,2013-11-26 12:59:00,
2013-11-26 07:04:00,17.2,-3.0,30.15,North,353,27.6,27.6,40,0.00,CLR,FEW,0.00,WeatherDisplay:10.37,2013-11-26 13:04:00,
2013-11-26 07:09:00,17.1,-2.6,30.15,NNW,335,24.2,24.2,41,0.00,CLR,FEW,0.00,WeatherDisplay:10.37,2013-11-26 13:09:00,
2013-11-26 07:14:00,16.9,-2.8,30.15,WNW,299,14.6,14.6,41,0.00,CLR,FEW,0.00,WeatherDisplay:10.37,2013-11-26 13:14:00,
2013-11-26 07:19:00,16.9,-2.8,30.15,NNW,332,12.7,12.7,41,0.00,CLR,FEW,0.00,WeatherDisplay:10.37,2013-11-26 13:19:00,
2013-11-26 07:24:00,16.7,-3.0,30.15,NNW,328,11.5,11.5,41,0.00,CLR,FEW,0.00,WeatherDisplay:10.37,2013-11-26 13:24:00,
2013-11-26 07:29:00,16.5,-3.1,30.15,North,349,15.0,15.0,41,0.00,CLR,FEW,0.00,WeatherDisplay:10.37,2013-11-26 13:29:00,
2013-11-26 07:34:00,16.5,-3.1,30.15,NW,315,12.7,12.7,41,0.00,CLR,FEW,0.00,WeatherDisplay:10.37,2013-11-26 13:34:00,
2013-11-26 07:39:00,16.5,-2.6,30.18,NNW,341,15.0,15.0,42,0.00,CLR,FEW,0.00,WeatherDisplay:10.37,2013-11-26 13:39:00,
2013-11-26 07:44:00,16.3,-2.8,30.18,NW,318,15.0,15.0,42,0.00,CLR,FEW,0.00,WeatherDisplay:10.37,2013-11-26 13:44:00,
2013-11-26 07:49:00,16.3,-2.8,30.18,NNW,344,12.7,12.7,42,0.00,CLR,FEW,0.00,WeatherDisplay:10.37,2013-11-26 13:49:00,
2013-11-26 07:54:00,16.5,-2.6,30.18,WNW,302,15.0,15.0,42,0.00,CLR,FEW,0.00,WeatherDisplay:10.37,2013-11-26 13:54:00,
2013-11-26 07:59:00,16.5,-2.1,30.18,NNW,330,13.8,13.8,43,0.00,CLR,FEW,0.00,WeatherDisplay:10.37,2013-11-26 13:59:00,
2013-11-26 08:04:00,16.5,-2.1,30.18,NW,310,11.6,11.6,43,0.00,CLR,FEW,0.00,WeatherDisplay:10.37,2013-11-26 14:04:00,
2013-11-26 08:09:00,16.5,-2.1,30.18,North,1,15.0,15.0,43,0.00,CLR,FEW,0.00,WeatherDisplay:10.37,2013-11-26 14:09:00,
2013-11-26 08:14:00,16.7,-2.0,30.18,North,353,14.1,14.1,43,0.00,CLR,FEW,0.00,WeatherDisplay:10.37,2013-11-26 14:14:00,
2013-11-26 08:19:00,16.9,-1.8,30.18,WNW,303,15.0,15.0,43,0.00,CLR,FEW,0.00,WeatherDisplay:10.37,2013-11-26 14:19:00,
2013-11-26 08:24:00,17.2,-1.5,30.18,WNW,301,12.7,12.7,43,0.00,CLR,FEW,0.00,WeatherDisplay:10.37,2013-11-26 14:24:00,
2013-11-26 08:29:00,17.6,-1.1,30.18,NNW,331,15.0,15.0,43,0.00,CLR,FEW,0.00,WeatherDisplay:10.37,2013-11-26 14:29:00,
2013-11-26 08:34:00,18.1,-0.6,30.18,West,276,8.2,8.2,43,0.00,CLR,FEW,0.00,WeatherDisplay:10.37,2013-11-26 14:34:00,
2013-11-26 08:39:00,18.7,-0.1,30.18,West,263,10.4,10.4,43,0.00,CLR,FEW,0.00,WeatherDisplay:10.37,2013-11-26 14:39:00,
2013-11-26 08:44:00,18.7,-0.7,30.18,NW,310,9.2,9.2,42,0.00,CLR,FEW,0.00,WeatherDisplay:10.37,2013-11-26 14:44:00,
2013-11-26 08:49:00,18.7,-0.1,30.21,WNW,292,15.0,15.0,43,0.00,CLR,FEW,0.00,WeatherDisplay:10.37,2013-11-26 14:49:00,
2013-11-26 08:54:00,19.4,0.5,30.21,NNW,328,19.6,19.6,43,0.00,CLR,FEW,0.00,WeatherDisplay:10.37,2013-11-26 14:54:00,
2013-11-26 08:59:00,19.9,0.5,30.21,North,9,17.3,17.3,42,0.00,CLR,FEW,0.00,WeatherDisplay:10.37,2013-11-26 14:59:00,
2013-11-26 09:04:00,20.5,1.0,30.21,NNW,330,12.7,12.7,42,0.00,CLR,FEW,0.00,WeatherDisplay:10.37,2013-11-26 15:04:00,
2013-11-26 09:09:00,21.6,1.5,30.21,NNW,346,12.7,12.7,41,0.00,CLR,FEW,0.00,WeatherDisplay:10.37,2013-11-26 15:09:00,
2013-11-26 09:14:00,21.9,1.2,30.21,NNW,334,15.7,15.7,40,0.00,CLR,FEW,0.00,WeatherDisplay:10.37,2013-11-26 15:14:00,
2013-11-26 09:19:00,20.5,0.5,30.21,NNW,341,15.0,15.0,41,0.00,CLR,FEW,0.00,WeatherDisplay:10.37,2013-11-26 15:19:00,
2013-11-26 09:24:00,20.1,0.1,30.21,NNW,333,17.3,17.3,41,0.00,CLR,FEW,0.00,WeatherDisplay:10.37,2013-11-26 15:24:00,
2013-11-26 09:29:00,19.8,0.3,30.21,West,278,13.8,13.8,42,0.00,CLR,FEW,0.00,WeatherDisplay:10.37,2013-11-26 15:29:00,
2013-11-26 09:34:00,20.1,0.1,30.21,NNE,20,15.0,15.0,41,0.00,CLR,FEW,0.00,WeatherDisplay:10.37,2013-11-26 15:34:00,
2013-11-26 09:39:00,20.8,0.8,30.21,West,272,12.7,12.7,41,0.00,CLR,FEW,0.00,WeatherDisplay:10.37,2013-11-26 15:39:00,
2013-11-26 09:44:00,22.6,1.9,30.21,NNW,344,15.0,15.0,40,0.00,CLR,FEW,0.00,WeatherDisplay:10.37,2013-11-26 15:44:00,
2013-11-26 09:49:00,23.9,2.5,30.21,WSW,248,14.1,14.1,39,0.00,CLR,FEW,0.00,WeatherDisplay:10.37,2013-11-26 15:49:00,
2013-11-26 09:54:00,24.4,1.8,30.21,West,279,18.4,18.4,37,0.00,CLR,FEW,0.00,WeatherDisplay:10.37,2013-11-26 15:54:00,
2013-11-26 09:59:00,24.8,2.2,30.21,NW,324,12.7,12.7,37,0.00,CLR,FEW,0.00,WeatherDisplay:10.37,2013-11-26 15:59:00,
2013-11-26 10:04:00,24.4,1.8,30.21,WNW,286,12.7,12.7,37,0.00,CLR,FEW,0.00,WeatherDisplay:10.37,2013-11-26 16:04:00,
2013-11-26 10:09:00,25.2,1.9,30.24,NNW,345,12.7,12.7,36,0.00,CLR,FEW,0.00,WeatherDisplay:10.37,2013-11-26 16:09:00,
2013-11-26 10:14:00,24.6,0.8,30.24,North,2,15.2,15.2,35,0.00,CLR,FEW,0.00,WeatherDisplay:10.37,2013-11-26 16:14:00,
2013-11-26 10:19:00,24.6,0.8,30.24,NNW,348,10.4,10.4,35,0.00,CLR,FEW,0.00,WeatherDisplay:10.37,2013-11-26 16:19:00,
2013-11-26 10:24:00,24.6,0.8,30.24,North,357,13.8,13.8,35,0.00,CLR,FEW,0.00,WeatherDisplay:10.37,2013-11-26 16:24:00,
2013-11-26 10:29:00,24.8,1.0,30.24,NW,312,11.6,11.6,35,0.00,CLR,FEW,0.00,WeatherDisplay:10.37,2013-11-26 16:29:00,
2013-11-26 10:34:00,25.3,1.5,30.24,WNW,291,12.1,12.1,35,0.00,CLR,FEW,0.00,WeatherDisplay:10.37,2013-11-26 16:34:00,
2013-11-26 10:39:00,25.3,0.8,30.24,WNW,297,12.7,12.7,34,0.00,CLR,FEW,0.00,WeatherDisplay:10.37,2013-11-26 16:39:00,
2013-11-26 10:44:00,25.3,0.8,30.24,NNE,24,17.3,17.3,34,0.00,CLR,FEW,0.00,WeatherDisplay:10.37,2013-11-26 16:44:00,
2013-11-26 10:49:00,25.0,0.5,30.24,WNW,296,12.7,12.7,34,0.00,CLR,FEW,0.00,WeatherDisplay:10.37,2013-11-26 16:49:00,
2013-11-26 10:54:00,24.1,0.3,30.24,WNW,292,25.3,25.3,35,0.00,CLR,FEW,0.00,WeatherDisplay:10.37,2013-11-26 16:54:00,
2013-11-26 10:59:00,23.4,-0.3,30.24,North,353,12.7,12.7,35,0.00,CLR,FEW,0.00,WeatherDisplay:10.37,2013-11-26 16:59:00,
2013-11-26 11:04:00,23.2,-0.5,30.24,North,1,11.5,11.5,35,0.00,CLR,FEW,0.00,WeatherDisplay:10.37,2013-11-26 17:04:00,
2013-11-26 11:09:00,23.4,-0.3,30.24,NNW,341,11.6,11.6,35,0.00,CLR,FEW,0.00,WeatherDisplay:10.37,2013-11-26 17:09:00,
2013-11-26 11:14:00,22.8,-0.8,30.24,WNW,285,15.0,15.0,35,0.00,CLR,FEW,0.00,WeatherDisplay:10.37,2013-11-26 17:14:00,
2013-11-26 11:19:00,22.5,-1.1,30.24,NNW,340,10.4,10.4,35,0.00,CLR,FEW,0.00,WeatherDisplay:10.37,2013-11-26 17:19:00,
2013-11-26 11:24:00,22.1,-1.4,30.24,NNW,334,11.6,11.6,35,0.00,CLR,FEW,0.00,WeatherDisplay:10.37,2013-11-26 17:24:00,
2013-11-26 11:29:00,21.9,-1.6,30.24,NNW,340,15.0,15.0,35,0.00,CLR,FEW,0.00,WeatherDisplay:10.37,2013-11-26 17:29:00,
2013-11-26 11:34:00,22.1,-1.4,30.24,NNW,343,15.0,15.0,35,0.00,CLR,FEW,0.00,WeatherDisplay:10.37,2013-11-26 17:34:00,
2013-11-26 11:39:00,22.3,-1.3,30.24,NW,325,10.5,10.5,35,0.00,CLR,FEW,0.00,WeatherDisplay:10.37,2013-11-26 17:39:00,
2013-11-26 11:44:00,22.3,-0.7,30.24,West,271,10.4,10.4,36,0.00,CLR,FEW,0.00,WeatherDisplay:10.37,2013-11-26 17:44:00,
2013-11-26 11:49:00,22.5,-1.1,30.24,NW,325,15.2,15.2,35,0.00,CLR,FEW,0.00,WeatherDisplay:10.37,2013-11-26 17:49:00,
2013-11-26 11:54:00,22.1,-0.8,30.24,NW,318,9.3,9.3,36,0.00,CLR,FEW,0.00,WeatherDisplay:10.37,2013-11-26 17:54:00,
2013-11-26 11:59:00,22.6,-1.0,30.24,North,0,15.0,15.0,35,0.00,CLR,FEW,0.00,WeatherDisplay:10.37,2013-11-26 17:59:00,
2013-11-26 12:04:00,22.6,-1.0,30.24,NW,308,14.6,14.6,35,0.00,CLR,FEW,0.00,WeatherDisplay:10.37,2013-11-26 18:04:00,
2013-11-26 12:09:00,22.8,-0.2,30.24,NW,326,10.4,10.4,36,0.00,CLR,FEW,0.00,WeatherDisplay:10.37,2013-11-26 18:09:00,
2013-11-26 12:14:00,22.8,-0.8,30.24,NNE,12,15.0,15.0,35,0.00,CLR,FEW,0.00,WeatherDisplay:10.37,2013-11-26 18:14:00,
2013-11-26 12:19:00,22.8,-0.8,30.21,North,357,14.1,14.1,35,0.00,CLR,FEW,0.00,WeatherDisplay:10.37,2013-11-26 18:19:00,
2013-11-26 12:24:00,21.9,-1.6,30.21,NNW,329,15.0,15.0,35,0.00,CLR,FEW,0.00,WeatherDisplay:10.37,2013-11-26 18:24:00,
2013-11-26 12:29:00,21.9,-1.6,30.21,NNW,340,12.1,12.1,35,0.00,CLR,FEW,0.00,WeatherDisplay:10.37,2013-11-26 18:29:00,
2013-11-26 12:34:00,21.9,-1.6,30.24,North,2,13.8,13.8,35,0.00,CLR,FEW,0.00,WeatherDisplay:10.37,2013-11-26 18:34:00,
2013-11-26 12:39:00,21.9,-1.6,30.24,North,6,14.6,14.6,35,0.00,CLR,FEW,0.00,WeatherDisplay:10.37,2013-11-26 18:39:00,
2013-11-26 12:44:00,23.4,-0.3,30.24,NW,310,15.0,15.0,35,0.00,CLR,FEW,0.00,WeatherDisplay:10.37,2013-11-26 18:44:00,
2013-11-26 12:49:00,23.4,-0.3,30.24,West,280,23.0,23.0,35,0.00,CLR,FEW,0.00,WeatherDisplay:10.37,2013-11-26 18:49:00,
2013-11-26 12:54:00,23.2,-1.1,30.24,NNW,329,12.7,12.7,34,0.00,CLR,FEW,0.00,WeatherDisplay:10.37,2013-11-26 18:54:00,
2013-11-26 12:59:00,22.8,-0.8,30.24,NNW,346,15.2,15.2,35,0.00,CLR,FEW,0.00,WeatherDisplay:10.37,2013-11-26 18:59:00,
2013-11-26 13:04:00,22.5,-1.1,30.24,North,9,12.7,12.7,35,0.00,CLR,FEW,0.00,WeatherDisplay:10.37,2013-11-26 19:04:00,
2013-11-26 13:09:00,21.9,-1.6,30.24,NNE,12,11.6,11.6,35,0.00,CLR,FEW,0.00,WeatherDisplay:10.37,2013-11-26 19:09:00,
2013-11-26 13:14:00,21.6,-1.9,30.24,NNW,329,12.1,12.1,35,0.00,CLR,FEW,0.00,WeatherDisplay:10.37,2013-11-26 19:14:00,
2013-11-26 13:19:00,21.7,-1.8,30.24,NNW,343,15.0,15.0,35,0.00,CLR,FEW,0.00,WeatherDisplay:10.37,2013-11-26 19:19:00,
2013-11-26 13:24:00,21.7,-1.8,30.24,NNW,338,13.8,13.8,35,0.00,CLR,FEW,0.00,WeatherDisplay:10.37,2013-11-26 19:24:00,
2013-11-26 13:29:00,21.9,-1.6,30.24,North,350,11.5,11.5,35,0.00,CLR,FEW,0.00,WeatherDisplay:10.37,2013-11-26 19:29:00,
2013-11-26 13:34:00,21.6,-1.9,30.21,North,7,15.2,15.2,35,0.00,CLR,FEW,0.00,WeatherDisplay:10.37,2013-11-26 19:34:00,
2013-11-26 13:39:00,21.6,-1.9,30.21,NW,320,13.8,13.8,35,0.00,CLR,FEW,0.00,WeatherDisplay:10.37,2013-11-26 19:39:00,
2013-11-26 13:44:00,21.7,-1.8,30.21,North,357,12.7,12.7,35,0.00,CLR,FEW,0.00,WeatherDisplay:10.37,2013-11-26 19:44:00,
2013-11-26 13:50:00,22.1,-0.8,30.24,NW,309,15.0,15.0,36,0.00,CLR,FEW,0.00,WeatherDisplay:10.37,2013-11-26 19:50:00,
2013-11-26 13:55:00,22.1,-0.8,30.24,NNW,346,13.8,13.8,36,0.00,CLR,FEW,0.00,WeatherDisplay:10.37,2013-11-26 19:55:00,
2013-11-26 14:00:00,22.3,-1.3,30.24,West,270,10.4,10.4,35,0.00,CLR,FEW,0.00,WeatherDisplay:10.37,2013-11-26 20:00:00,
2013-11-26 14:05:00,22.5,-1.1,30.24,North,353,13.8,13.8,35,0.00,CLR,FEW,0.00,WeatherDisplay:10.37,2013-11-26 20:05:00,
2013-11-26 14:10:00,22.3,-1.3,30.24,NW,310,10.4,10.4,35,0.00,CLR,FEW,0.00,WeatherDisplay:10.37,2013-11-26 20:10:00,
2013-11-26 14:15:00,21.7,-1.8,30.24,North,0,11.5,11.5,35,0.00,CLR,FEW,0.00,WeatherDisplay:10.37,2013-11-26 20:15:00,
2013-11-26 14:20:00,21.4,-2.1,30.24,NNW,335,11.6,11.6,35,0.00,CLR,FEW,0.00,WeatherDisplay:10.37,2013-11-26 20:20:00,
2013-11-26 14:25:00,21.2,-1.6,30.24,NNW,329,12.7,12.7,36,0.00,CLR,FEW,0.00,WeatherDisplay:10.37,2013-11-26 20:25:00,
2013-11-26 14:30:00,21.6,-1.3,30.24,WNW,297,13.8,13.8,36,0.00,CLR,FEW,0.00,WeatherDisplay:10.37,2013-11-26 20:30:00,
2013-11-26 14:35:00,21.7,-1.8,30.24,NNW,336,11.5,11.5,35,0.00,CLR,FEW,0.00,WeatherDisplay:10.37,2013-11-26 20:35:00,
2013-11-26 14:40:00,21.6,-1.9,30.24,NNW,328,10.4,10.4,35,0.00,CLR,FEW,0.00,WeatherDisplay:10.37,2013-11-26 20:40:00,
2013-11-26 14:45:00,21.4,-2.1,30.24,North,353,13.8,13.8,35,0.00,CLR,FEW,0.00,WeatherDisplay:10.37,2013-11-26 20:45:00,
2013-11-26 14:50:00,21.6,-1.3,30.24,NNW,337,10.4,10.4,36,0.00,CLR,FEW,0.00,WeatherDisplay:10.37,2013-11-26 20:50:00,
2013-11-26 14:55:00,21.6,-1.9,30.24,NNW,342,16.1,16.1,35,0.00,CLR,FEW,0.00,WeatherDisplay:10.37,2013-11-26 20:55:00,
2013-11-26 15:00:00,21.6,-1.9,30.24,North,357,12.7,12.7,35,0.00,CLR,FEW,0.00,WeatherDisplay:10.37,2013-11-26 21:00:00,
2013-11-26 15:05:00,21.4,-2.1,30.24,NW,323,9.2,9.2,35,0.00,CLR,FEW,0.00,WeatherDisplay:10.37,2013-11-26 21:05:00,
2013-11-26 15:10:00,21.2,-1.6,30.24,NNW,341,12.7,12.7,36,0.00,CLR,FEW,0.00,WeatherDisplay:10.37,2013-11-26 21:10:00,
2013-11-26 15:15:00,21.0,-1.8,30.24,NNW,327,12.7,12.7,36,0.00,CLR,FEW,0.00,WeatherDisplay:10.37,2013-11-26 21:15:00,
2013-11-26 15:20:00,20.8,-2.0,30.24,NW,315,10.4,10.4,36,0.00,CLR,FEW,0.00,WeatherDisplay:10.37,2013-11-26 21:20:00,
2013-11-26 15:25:00,20.7,-2.1,30.24,NNW,343,7.2,7.2,36,0.00,CLR,FEW,0.00,WeatherDisplay:10.37,2013-11-26 21:25:00,
2013-11-26 15:30:00,20.7,-2.1,30.24,West,263,9.2,9.2,36,0.00,CLR,FEW,0.00,WeatherDisplay:10.37,2013-11-26 21:30:00,
2013-11-26 15:35:00,20.7,-2.1,30.24,NNW,329,12.7,12.7,36,0.00,CLR,FEW,0.00,WeatherDisplay:10.37,2013-11-26 21:35:00,
2013-11-26 15:40:00,20.8,-2.0,30.24,NW,314,10.4,10.4,36,0.00,CLR,FEW,0.00,WeatherDisplay:10.37,2013-11-26 21:40:00,
2013-11-26 15:45:00,20.8,-2.0,30.24,WNW,301,12.7,12.7,36,0.00,CLR,FEW,0.00,WeatherDisplay:10.37,2013-11-26 21:45:00,
2013-11-26 15:50:00,20.8,-2.0,30.24,NW,321,17.3,17.3,36,0.00,CLR,FEW,0.00,WeatherDisplay:10.37,2013-11-26 21:50:00,
2013-11-26 15:55:00,20.7,-2.1,30.24,North,357,12.7,12.7,36,0.00,CLR,FEW,0.00,WeatherDisplay:10.37,2013-11-26 21:55:00,
2013-11-26 16:00:00,20.5,-2.3,30.24,North,357,12.1,12.1,36,0.00,CLR,FEW,0.00,WeatherDisplay:10.37,2013-11-26 22:00:00,
2013-11-26 16:05:00,20.3,-2.5,30.26,NW,313,9.2,9.2,36,0.00,CLR,FEW,0.00,WeatherDisplay:10.37,2013-11-26 22:05:00,
2013-11-26 16:10:00,20.3,-2.5,30.26,North,353,10.4,10.4,36,0.00,CLR,FEW,0.00,WeatherDisplay:10.37,2013-11-26 22:10:00,
2013-11-26 16:15:00,20.1,-2.6,30.26,NW,313,11.5,11.5,36,0.00,CLR,FEW,0.00,WeatherDisplay:10.37,2013-11-26 22:15:00,
2013-11-26 16:20:00,19.9,-2.8,30.26,NNW,340,9.5,9.5,36,0.00,CLR,FEW,0.00,WeatherDisplay:10.37,2013-11-26 22:20:00,
2013-11-26 16:25:00,19.8,-2.4,30.26,North,353,11.6,11.6,37,0.00,CLR,FEW,0.00,WeatherDisplay:10.37,2013-11-26 22:25:00,
2013-11-26 16:30:00,19.6,-2.5,30.26,NNE,16,12.7,12.7,37,0.00,CLR,FEW,0.00,WeatherDisplay:10.37,2013-11-26 22:30:00,
2013-11-26 16:35:00,19.6,-2.5,30.26,WNW,293,9.2,9.2,37,0.00,CLR,FEW,0.00,WeatherDisplay:10.37,2013-11-26 22:35:00,
2013-11-26 16:40:00,19.4,-2.7,30.26,NW,321,10.4,10.4,37,0.00,CLR,FEW,0.00,WeatherDisplay:10.37,2013-11-26 22:40:00,
2013-11-26 16:45:00,19.2,-2.8,30.26,NNW,337,9.5,9.5,37,0.00,CLR,FEW,0.00,WeatherDisplay:10.37,2013-11-26 22:45:00,
2013-11-26 16:50:00,19.0,-3.0,30.26,NNW,327,9.2,9.2,37,0.00,CLR,FEW,0.00,WeatherDisplay:10.37,2013-11-26 22:50:00,
2013-11-26 16:55:00,19.0,-2.4,30.26,NNW,342,6.9,6.9,38,0.00,CLR,FEW,0.00,WeatherDisplay:10.37,2013-11-26 22:55:00,
2013-11-26 17:00:00,19.0,-2.4,30.26,NNW,340,8.1,8.1,38,0.00,CLR,FEW,0.00,WeatherDisplay:10.37,2013-11-26 23:00:00,
2013-11-26 17:05:00,19.0,-2.4,30.26,NNW,334,9.3,9.3,38,0.00,CLR,FEW,0.00,WeatherDisplay:10.37,2013-11-26 23:05:00,
2013-11-26 17:10:00,19.0,-2.4,30.26,NNW,328,6.9,6.9,38,0.00,CLR,FEW,0.00,WeatherDisplay:10.37,2013-11-26 23:10:00,
2013-11-26 17:15:00,19.0,-2.4,30.26,NNW,344,9.2,9.2,38,0.00,CLR,FEW,0.00,WeatherDisplay:10.37,2013-11-26 23:15:00,
2013-11-26 17:20:00,19.0,-1.9,30.30,North,353,9.3,9.3,39,0.00,CLR,FEW,0.00,WeatherDisplay:10.37,2013-11-26 23:20:00,
2013-11-26 17:25:00,19.0,-1.9,30.30,North,357,9.2,9.2,39,0.00,CLR,FEW,0.00,WeatherDisplay:10.37,2013-11-26 23:25:00,
2013-11-26 17:30:00,19.0,-1.9,30.30,North,350,12.7,12.7,39,0.00,CLR,FEW,0.00,WeatherDisplay:10.37,2013-11-26 23:30:00,
2013-11-26 17:35:00,18.9,-2.1,30.30,NNW,334,10.4,10.4,39,0.00,CLR,FEW,0.00,WeatherDisplay:10.37,2013-11-26 23:35:00,
2013-11-26 17:40:00,18.7,-1.7,30.30,NNW,339,12.7,12.7,40,0.00,CLR,FEW,0.00,WeatherDisplay:10.37,2013-11-26 23:40:00,
2013-11-26 17:45:00,18.7,-1.7,30.30,NNW,340,10.4,10.4,40,0.00,CLR,FEW,0.00,WeatherDisplay:10.37,2013-11-26 23:45:00,
2013-11-26 17:50:00,18.5,-1.8,30.30,NNW,343,12.1,12.1,40,0.00,CLR,FEW,0.00,WeatherDisplay:10.37,2013-11-26 23:50:00,
2013-11-26 17:56:00,18.5,-1.8,30.30,NNW,331,10.4,10.4,40,0.00,CLR,FEW,0.00,WeatherDisplay:10.37,2013-11-26 23:56:00,
2013-11-26 18:01:00,18.5,-1.8,30.30,NW,307,10.4,10.4,40,0.00,CLR,FEW,0.00,WeatherDisplay:10.37,2013-11-27 00:01:00,
2013-11-26 18:06:00,18.5,-1.8,30.30,NNW,329,9.5,9.5,40,0.00,CLR,FEW,0.00,WeatherDisplay:10.37,2013-11-27 00:06:00,
2013-11-26 18:11:00,18.5,-1.8,30.30,NW,324,9.2,9.2,40,0.00,CLR,FEW,0.00,WeatherDisplay:10.37,2013-11-27 00:11:00,
2013-11-26 18:16:00,18.3,-2.0,30.30,WNW,291,10.4,10.4,40,0.00,CLR,FEW,0.00,WeatherDisplay:10.37,2013-11-27 00:16:00,
2013-11-26 18:21:00,18.3,-2.0,30.30,NW,316,9.3,9.3,40,0.00,CLR,FEW,0.00,WeatherDisplay:10.37,2013-11-27 00:21:00,
2013-11-26 18:26:00,18.1,-2.2,30.30,NNW,346,9.2,9.2,40,0.00,CLR,FEW,0.00,WeatherDisplay:10.37,2013-11-27 00:26:00,
2013-11-26 18:31:00,18.1,-2.2,30.30,NW,319,9.2,9.2,40,0.00,CLR,FEW,0.00,WeatherDisplay:10.37,2013-11-27 00:31:00,
2013-11-26 18:36:00,18.1,-2.2,30.30,NNW,331,11.6,11.6,40,0.00,CLR,FEW,0.00,WeatherDisplay:10.37,2013-11-27 00:36:00,
2013-11-26 18:41:00,18.1,-2.2,30.30,NNW,341,9.2,9.2,40,0.00,CLR,FEW,0.00,WeatherDisplay:10.37,2013-11-27 00:41:00,
2013-11-26 18:46:00,18.0,-1.8,30.30,NNW,336,10.4,10.4,41,0.00,CLR,FEW,0.00,WeatherDisplay:10.37,2013-11-27 00:46:00,
2013-11-26 18:51:00,18.1,-1.7,30.32,NW,320,9.2,9.2,41,0.00,CLR,FEW,0.00,WeatherDisplay:10.37,2013-11-27 00:51:00,
2013-11-26 18:56:00,18.1,-1.7,30.32,North,353,13.8,13.8,41,0.00,CLR,FEW,0.00,WeatherDisplay:10.37,2013-11-27 00:56:00,
2013-11-26 19:01:00,18.1,-1.1,30.32,North,353,10.4,10.4,42,0.00,CLR,FEW,0.00,WeatherDisplay:10.37,2013-11-27 01:01:00,
2013-11-26 19:06:00,18.1,-1.1,30.32,NW,325,9.2,9.2,42,0.00,CLR,FEW,0.00,WeatherDisplay:10.37,2013-11-27 01:06:00,
2013-11-26 19:11:00,18.1,-1.1,30.32,NNW,337,9.3,9.3,42,0.00,CLR,FEW,0.00,WeatherDisplay:10.37,2013-11-27 01:11:00,
2013-11-26 19:16:00,18.1,-1.1,30.32,WNW,282,10.4,10.4,42,0.00,CLR,FEW,0.00,WeatherDisplay:10.37,2013-11-27 01:16:00,
2013-11-26 19:21:00,18.0,-1.3,30.32,NW,325,12.7,12.7,42,0.00,CLR,FEW,0.00,WeatherDisplay:10.37,2013-11-27 01:21:00,
2013-11-26 19:26:00,17.8,-1.5,30.32,NNW,328,9.2,9.2,42,0.00,CLR,FEW,0.00,WeatherDisplay:10.37,2013-11-27 01:26:00,
2013-11-26 19:31:00,17.8,-1.0,30.32,NW,315,9.5,9.5,43,0.00,CLR,FEW,0.00,WeatherDisplay:10.37,2013-11-27 01:31:00,
2013-11-26 19:36:00,17.8,-1.0,30.32,NW,319,9.2,9.2,43,0.00,CLR,FEW,0.00,WeatherDisplay:10.37,2013-11-27 01:36:00,
2013-11-26 19:41:00,17.8,-1.0,30.32,NNW,340,9.2,9.2,43,0.00,CLR,FEW,0.00,WeatherDisplay:10.37,2013-11-27 01:41:00,
2013-11-26 19:46:00,17.6,-1.1,30.32,North,357,9.2,9.2,43,0.00,CLR,FEW,0.00,WeatherDisplay:10.37,2013-11-27 01:46:00,
2013-11-26 19:51:00,17.6,-0.6,30.32,NNW,348,7.2,7.2,44,0.00,CLR,FEW,0.00,WeatherDisplay:10.37,2013-11-27 01:51:00,
2013-11-26 19:56:00,17.4,-0.8,30.32,North,353,7.2,7.2,44,0.00,CLR,FEW,0.00,WeatherDisplay:10.37,2013-11-27 01:56:00,
2013-11-26 20:01:00,17.1,-1.1,30.32,North,353,7.2,7.2,44,0.00,CLR,FEW,0.00,WeatherDisplay:10.37,2013-11-27 02:01:00,
2013-11-26 20:06:00,16.9,-1.3,30.32,North,353,9.5,9.5,44,0.00,CLR,FEW,0.00,WeatherDisplay:10.37,2013-11-27 02:06:00,
2013-11-26 20:11:00,16.9,-1.3,30.32,North,353,9.2,9.2,44,0.00,CLR,FEW,0.00,WeatherDisplay:10.37,2013-11-27 02:11:00,
2013-11-26 20:16:00,16.9,-1.3,30.32,North,353,6.2,6.2,44,0.00,CLR,FEW,0.00,WeatherDisplay:10.37,2013-11-27 02:16:00,
2013-11-26 20:21:00,16.5,-1.6,30.32,NW,315,6.9,6.9,44,0.00,CLR,FEW,0.00,WeatherDisplay:10.37,2013-11-27 02:21:00,
2013-11-26 20:26:00,16.5,-1.6,30.32,NNW,327,5.8,0.0,44,0.00,CLR,FEW,0.00,WeatherDisplay:10.37,2013-11-27 02:26:00,
2013-11-26 20:31:00,16.2,-2.0,30.32,NNW,342,6.9,6.9,44,0.00,CLR,FEW,0.00,WeatherDisplay:10.37,2013-11-27 02:31:00,
2013-11-26 20:36:00,16.2,-2.0,30.32,NW,321,7.7,7.7,44,0.00,CLR,FEW,0.00,WeatherDisplay:10.37,2013-11-27 02:36:00,
2013-11-26 20:41:00,16.0,-1.7,30.32,NNW,335,6.9,6.9,45,0.00,CLR,FEW,0.00,WeatherDisplay:10.37,2013-11-27 02:41:00,
2013-11-26 20:46:00,15.8,-1.8,30.32,North,353,4.6,4.6,45,0.00,CLR,FEW,0.00,WeatherDisplay:10.37,2013-11-27 02:46:00,
2013-11-26 20:51:00,15.4,-1.7,30.32,NNW,330,6.9,6.9,46,0.00,CLR,FEW,0.00,WeatherDisplay:10.37,2013-11-27 02:51:00,
2013-11-26 20:56:00,15.4,-1.7,30.32,North,353,7.2,7.2,46,0.00,CLR,FEW,0.00,WeatherDisplay:10.37,2013-11-27 02:56:00,
2013-11-26 21:01:00,15.3,-1.9,30.32,NW,309,4.6,4.6,46,0.00,CLR,FEW,0.00,WeatherDisplay:10.37,2013-11-27 03:01:00,
2013-11-26 21:06:00,15.3,-1.9,30.32,NNW,329,5.8,5.8,46,0.00,CLR,FEW,0.00,WeatherDisplay:10.37,2013-11-27 03:06:00,
2013-11-26 21:11:00,15.1,-2.0,30.32,NNW,328,6.2,0.0,46,0.00,CLR,FEW,0.00,WeatherDisplay:10.37,2013-11-27 03:11:00,
2013-11-26 21:16:00,14.9,-1.7,30.32,NNW,343,6.9,6.9,47,0.00,CLR,FEW,0.00,WeatherDisplay:10.37,2013-11-27 03:16:00,
2013-11-26 21:21:00,14.9,-1.7,30.32,NNW,348,5.8,5.8,47,0.00,CLR,FEW,0.00,WeatherDisplay:10.37,2013-11-27 03:21:00,
2013-11-26 21:26:00,14.9,-1.3,30.32,NNW,338,5.7,5.7,48,0.00,CLR,FEW,0.00,WeatherDisplay:10.37,2013-11-27 03:26:00,
2013-11-26 21:31:00,14.7,-1.5,30.32,NNW,332,4.6,4.6,48,0.00,CLR,FEW,0.00,WeatherDisplay:10.37,2013-11-27 03:31:00,
2013-11-26 21:36:00,14.5,-1.6,30.32,NNW,343,4.6,4.6,48,0.00,CLR,FEW,0.00,WeatherDisplay:10.37,2013-11-27 03:36:00,
2013-11-26 21:41:00,14.5,-1.2,30.32,North,353,5.8,5.8,49,0.00,CLR,FEW,0.00,WeatherDisplay:10.37,2013-11-27 03:41:00,
2013-11-26 21:46:00,14.4,-1.3,30.32,NNW,342,4.6,4.6,49,0.00,CLR,FEW,0.00,WeatherDisplay:10.37,2013-11-27 03:46:00,
2013-11-26 21:51:00,14.2,-1.5,30.32,NNW,342,4.6,4.6,49,0.00,CLR,FEW,0.00,WeatherDisplay:10.37,2013-11-27 03:51:00,
2013-11-26 21:56:00,14.0,-1.7,30.32,WNW,300,4.6,4.6,49,0.00,CLR,FEW,0.00,WeatherDisplay:10.37,2013-11-27 03:56:00,
2013-11-26 22:01:00,13.8,-1.4,30.32,NW,324,4.6,4.6,50,0.00,CLR,FEW,0.00,WeatherDisplay:10.37,2013-11-27 04:01:00,
2013-11-26 22:06:00,13.8,-1.4,30.32,WNW,303,3.5,3.5,50,0.00,CLR,FEW,0.00,WeatherDisplay:10.37,2013-11-27 04:06:00,
2013-11-26 22:11:00,13.5,-1.8,30.32,WNW,292,4.6,4.6,50,0.00,CLR,FEW,0.00,WeatherDisplay:10.37,2013-11-27 04:11:00,
2013-11-26 22:16:00,13.3,-1.9,30.32,WNW,300,0.0,0.0,50,0.00,CLR,FEW,0.00,WeatherDisplay:10.37,2013-11-27 04:16:00,
2013-11-26 22:21:00,12.9,-2.3,30.32,NW,306,0.0,0.0,50,0.00,CLR,FEW,0.00,WeatherDisplay:10.37,2013-11-27 04:21:00,
2013-11-26 22:26:00,12.7,-2.4,30.32,NW,310,4.6,4.6,50,0.00,CLR,FEW,0.00,WeatherDisplay:10.37,2013-11-27 04:26:00,
2013-11-26 22:31:00,12.6,-2.6,30.32,NW,319,5.8,5.8,50,0.00,CLR,FEW,0.00,WeatherDisplay:10.37,2013-11-27 04:31:00,
2013-11-26 22:36:00,12.6,-2.6,30.35,NNW,332,4.6,4.6,50,0.00,CLR,FEW,0.00,WeatherDisplay:10.37,2013-11-27 04:36:00,
2013-11-26 22:41:00,12.6,-2.6,30.35,NNW,332,3.6,3.6,50,0.00,CLR,FEW,0.00,WeatherDisplay:10.37,2013-11-27 04:41:00,
2013-11-26 22:46:00,12.6,-2.6,30.35,NNW,336,5.7,5.7,50,0.00,CLR,FEW,0.00,WeatherDisplay:10.37,2013-11-27 04:46:00,
2013-11-26 22:51:00,12.4,-2.8,30.35,NW,325,3.6,3.6,50,0.00,CLR,FEW,0.00,WeatherDisplay:10.37,2013-11-27 04:51:00,
2013-11-26 22:56:00,12.4,-2.8,30.35,NNW,341,3.5,0.0,50,0.00,CLR,FEW,0.00,WeatherDisplay:10.37,2013-11-27 04:56:00,
2013-11-26 23:01:00,12.2,-2.9,30.35,NW,318,4.6,4.6,50,0.00,CLR,FEW,0.00,WeatherDisplay:10.37,2013-11-27 05:01:00,
2013-11-26 23:02:00,12.2,-2.9,30.35,NW,318,4.6,4.6,50,0.00,CLR,FEW,0.00,WeatherDisplay:10.37,2013-11-27 05:02:00,
2013-11-26 23:03:00,12.2,-2.9,30.35,NNW,338,4.6,4.6,50,0.00,CLR,FEW,0.00,WeatherDisplay:10.37,2013-11-27 05:03:00,
2013-11-26 23:05:00,12.2,-2.9,30.35,NW,304,4.1,4.1,50,0.00,CLR,FEW,0.00,WeatherDisplay:10.37,2013-11-27 05:05:00,
2013-11-26 23:10:00,12.0,-3.1,30.35,NNW,344,4.6,4.6,50,0.00,CLR,FEW,0.00,WeatherDisplay:10.37,2013-11-27 05:10:00,
2013-11-26 23:15:00,12.0,-3.1,30.35,NW,309,5.8,5.8,50,0.00,CLR,FEW,0.00,WeatherDisplay:10.37,2013-11-27 05:15:00,
2013-11-26 23:20:00,11.8,-3.3,30.35,NW,320,3.6,0.0,50,0.00,CLR,FEW,0.00,WeatherDisplay:10.37,2013-11-27 05:20:00,
2013-11-26 23:25:00,11.7,-3.4,30.35,NW,314,4.6,4.6,50,0.00,CLR,FEW,0.00,WeatherDisplay:10.37,2013-11-27 05:25:00,
2013-11-26 23:27:00,11.7,-3.4,30.35,NW,319,4.6,4.6,50,0.00,CLR,FEW,0.00,WeatherDisplay:10.37,2013-11-27 05:27:00,
2013-11-26 23:32:00,11.7,-3.4,30.35,WNW,299,4.6,0.0,50,0.00,CLR,FEW,0.00,WeatherDisplay:10.37,2013-11-27 05:32:00,
2013-11-26 23:37:00,11.5,-3.6,30.35,NW,307,0.0,0.0,50,0.00,CLR,FEW,0.00,WeatherDisplay:10.37,2013-11-27 05:37:00,
2013-11-26 23:42:00,11.3,-3.8,30.35,NW,305,3.5,0.0,50,0.00,CLR,FEW,0.00,WeatherDisplay:10.37,2013-11-27 05:42:00,
2013-11-26 23:47:00,11.1,-3.9,30.35,NW,311,0.0,0.0,50,0.00,CLR,FEW,0.00,WeatherDisplay:10.37,2013-11-27 05:47:00,
2013-11-26 23:52:00,10.9,-4.1,30.35,NW,308,4.6,0.0,50,0.00,CLR,FEW,0.00,WeatherDisplay:10.37,2013-11-27 05:52:00,
2013-11-26 23:57:00,10.8,-4.3,30.35,NW,308,3.5,0.0,50,0.00,CLR,FEW,0.00,WeatherDisplay:10.37,2013-11-27 05:57:00,